Location: Unspecified
(43.8044°N, 11.0278°E)
Time: 14:44:42
(UTC+01:00)

CZ-3 Stage 3 - Visible Passes

Search period start: 20 December 2014 00:00
Search period end: 30 December 2014 00:00
Orbit: 433 x 34798 km, 31.0° (Epoch: 16 December)

Date Brightness Start Highest point End Pass type
(mag) Time Alt. Az. Time Alt. Az. Time Alt. Az.
20 Dec 6.7 01:57:51 61° SSE 01:57:51 61° SSE 02:11:28 10° ESE visible
20 Dec 7.7 15:33:12 10° ESE 21:18:40 54° SE 21:30:06 54° SE visible
21 Dec 9.3 16:22:23 10° E 17:32:32 14° E 18:04:54 12° E visible
22 Dec 6.1 04:14:02 10° WNW 05:30:09 29° WSW 05:39:08 10° S visible
22 Dec 6.6 17:12:41 10° S 01:55:24 57° SE 02:06:52 10° ESE visible
23 Dec 7.7 15:18:44 10° ESE 21:13:28 56° SE 21:30:39 55° SE visible
24 Dec 9.2 16:03:29 10° E 17:26:31 16° E 18:05:18 13° E visible
25 Dec 6.1 04:15:53 10° WNW 05:25:07 28° WSW 05:34:12 10° S visible
25 Dec 6.5 17:06:14 10° S 01:53:06 50° SE 02:02:15 10° ESE visible
26 Dec 7.7 15:04:27 10° ESE 21:08:15 57° SE 21:30:47 55° ESE visible
27 Dec 9.1 15:45:23 10° E 17:20:29 17° E 18:05:17 13° ENE visible
28 Dec 6.1 04:16:41 10° WNW 05:20:02 26° WSW 05:29:13 10° S visible
28 Dec 6.4 16:59:56 10° S 01:50:36 42° SE 01:57:37 10° ESE visible
29 Dec 8.7 14:50:21 10° ESE 21:03:01 58° SE 21:30:30 56° ESE visible
